TimeCST,TemperatureF,Dew PointF,Humidity,Sea Level PressureIn,VisibilityMPH,Wind Direction,Wind SpeedMPH,Gust SpeedMPH,PrecipitationIn,Events,Conditions,WindDirDegrees,DateUTC
12:12 AM,19.4,15.8,86,29.98,10.0,NNW,10.4,-,N/A,,Overcast,330,2014-02-16 06:12:00
12:33 AM,17.6,15.8,93,29.98,7.0,NNW,9.2,-,N/A,,Overcast,330,2014-02-16 06:33:00
12:52 AM,17.6,15.8,93,30.00,7.0,NW,5.8,-,N/A,,Overcast,320,2014-02-16 06:52:00
1:12 AM,17.6,15.8,93,30.00,7.0,NW,8.1,-,N/A,,Overcast,310,2014-02-16 07:12:00
1:33 AM,15.8,14.0,93,30.00,7.0,NW,6.9,-,N/A,,Overcast,320,2014-02-16 07:33:00
1:52 AM,15.8,12.2,86,30.01,7.0,WNW,6.9,-,N/A,,Overcast,300,2014-02-16 07:52:00
2:12 AM,15.8,12.2,86,30.04,7.0,WNW,5.8,-,N/A,,Overcast,290,2014-02-16 08:12:00
2:33 AM,15.8,12.2,86,30.05,7.0,WNW,8.1,-,N/A,Snow,Light Snow,300,2014-02-16 08:33:00
2:52 AM,15.8,12.2,86,30.06,7.0,WNW,5.8,-,N/A,Snow,Light Snow,300,2014-02-16 08:52:00
3:12 AM,15.8,12.2,86,30.06,5.0,WNW,4.6,-,N/A,Snow,Light Snow,300,2014-02-16 09:12:00
3:32 AM,15.8,12.2,86,30.07,5.0,WNW,5.8,-,N/A,Snow,Light Snow,300,2014-02-16 09:32:00
3:52 AM,15.8,12.2,86,30.07,7.0,WNW,6.9,-,N/A,Snow,Light Snow,290,2014-02-16 09:52:00
4:12 AM,14.0,12.2,93,30.06,5.0,NW,5.8,-,N/A,Snow,Light Snow,310,2014-02-16 10:12:00
4:32 AM,14.0,10.4,86,30.07,7.0,NW,4.6,-,N/A,Snow,Light Snow,320,2014-02-16 10:32:00
4:52 AM,12.2,10.4,92,30.08,7.0,WNW,3.5,-,N/A,,Overcast,300,2014-02-16 10:52:00
5:12 AM,12.2,10.4,92,30.08,7.0,WNW,3.5,-,N/A,,Overcast,300,2014-02-16 11:12:00
5:32 AM,12.2,10.4,92,30.08,7.0,Calm,Calm,-,N/A,,Overcast,0,2014-02-16 11:32:00
5:52 AM,12.2,10.4,92,30.09,7.0,NNW,3.5,-,N/A,,Overcast,330,2014-02-16 11:52:00
6:12 AM,10.4,8.6,92,30.12,7.0,West,3.5,-,N/A,,Mostly Cloudy,260,2014-02-16 12:12:00
6:32 AM,10.4,8.6,92,30.13,7.0,West,4.6,-,N/A,,Mostly Cloudy,280,2014-02-16 12:32:00
6:52 AM,10.4,8.6,92,30.13,10.0,Calm,Calm,-,N/A,,Mostly Cloudy,0,2014-02-16 12:52:00
7:12 AM,10.4,8.6,92,30.14,7.0,Calm,Calm,-,N/A,,Scattered Clouds,0,2014-02-16 13:12:00
7:33 AM,8.6,6.8,92,30.15,7.0,West,3.5,-,N/A,,Clear,270,2014-02-16 13:33:00
7:52 AM,8.6,6.8,92,30.17,7.0,West,3.5,-,N/A,,Clear,280,2014-02-16 13:52:00
8:12 AM,8.6,6.8,92,30.18,7.0,West,4.6,-,N/A,,Clear,280,2014-02-16 14:12:00
8:33 AM,10.4,6.8,85,30.19,7.0,West,3.5,-,N/A,,Clear,270,2014-02-16 14:33:00
8:52 AM,10.4,6.8,85,30.20,10.0,West,4.6,-,N/A,,Clear,280,2014-02-16 14:52:00
9:12 AM,10.4,6.8,85,30.20,10.0,Calm,Calm,-,N/A,,Clear,0,2014-02-16 15:12:00
9:33 AM,10.4,6.8,85,30.20,10.0,Calm,Calm,-,N/A,,Clear,0,2014-02-16 15:33:00
9:52 AM,10.4,6.8,85,30.20,10.0,Calm,Calm,-,N/A,,Clear,0,2014-02-16 15:52:00
10:12 AM,10.4,6.8,85,30.19,10.0,WNW,3.5,-,N/A,,Clear,290,2014-02-16 16:12:00
10:33 AM,10.4,6.8,85,30.19,10.0,NNW,3.5,-,N/A,,Clear,340,2014-02-16 16:33:00
10:52 AM,10.4,6.8,85,30.18,10.0,North,4.6,-,N/A,,Clear,10,2014-02-16 16:52:00
11:12 AM,12.2,6.8,79,30.17,10.0,ENE,4.6,-,N/A,,Clear,60,2014-02-16 17:12:00
11:33 AM,12.2,8.6,85,30.17,7.0,ENE,4.6,-,N/A,,Clear,60,2014-02-16 17:33:00
11:52 AM,12.2,8.6,85,30.14,10.0,ENE,10.4,-,N/A,,Clear,70,2014-02-16 17:52:00
12:12 PM,14.0,10.4,86,30.13,10.0,East,9.2,-,N/A,,Clear,80,2014-02-16 18:12:00
12:33 PM,14.0,8.6,79,30.12,10.0,East,9.2,-,N/A,,Clear,90,2014-02-16 18:33:00
12:52 PM,15.8,10.4,79,30.11,10.0,East,9.2,-,N/A,,Clear,90,2014-02-16 18:52:00
1:12 PM,15.8,10.4,79,30.10,10.0,East,10.4,-,N/A,,Clear,100,2014-02-16 19:12:00
1:32 PM,15.8,10.4,79,30.11,10.0,SE,10.4,-,N/A,,Clear,130,2014-02-16 19:32:00
1:52 PM,17.6,10.4,73,30.10,10.0,ESE,10.4,-,N/A,,Clear,110,2014-02-16 19:52:00
2:12 PM,17.6,8.6,68,30.10,10.0,SE,11.5,-,N/A,,Clear,130,2014-02-16 20:12:00
2:33 PM,17.6,10.4,73,30.10,10.0,SE,11.5,-,N/A,,Clear,130,2014-02-16 20:33:00
2:52 PM,17.6,10.4,73,30.09,10.0,SE,12.7,-,N/A,,Clear,140,2014-02-16 20:52:00
3:12 PM,17.6,10.4,73,30.09,10.0,SE,11.5,-,N/A,,Scattered Clouds,140,2014-02-16 21:12:00
3:33 PM,17.6,10.4,73,30.08,10.0,SE,13.8,17.3,N/A,,Clear,130,2014-02-16 21:33:00
3:52 PM,17.6,10.4,73,30.07,10.0,SE,13.8,19.6,N/A,,Clear,140,2014-02-16 21:52:00
4:12 PM,17.6,12.2,79,30.07,10.0,SSE,12.7,-,N/A,,Clear,150,2014-02-16 22:12:00
4:33 PM,17.6,12.2,79,30.07,10.0,SE,12.7,18.4,N/A,,Clear,140,2014-02-16 22:33:00
4:52 PM,17.6,12.2,79,30.08,10.0,SE,13.8,20.7,N/A,,Scattered Clouds,140,2014-02-16 22:52:00
5:12 PM,17.6,12.2,79,30.07,10.0,SSE,13.8,19.6,N/A,,Mostly Cloudy,150,2014-02-16 23:12:00
5:33 PM,17.6,12.2,79,30.06,10.0,SSE,11.5,-,N/A,,Overcast,150,2014-02-16 23:33:00
5:52 PM,17.6,12.2,79,30.06,10.0,SE,12.7,-,N/A,,Overcast,140,2014-02-16 23:52:00
6:12 PM,17.6,12.2,79,30.06,10.0,SE,13.8,-,N/A,,Mostly Cloudy,140,2014-02-17 00:12:00
6:33 PM,19.4,12.2,74,30.05,10.0,SE,16.1,21.9,N/A,,Mostly Cloudy,140,2014-02-17 00:33:00
6:52 PM,19.4,12.2,74,30.04,10.0,SE,20.7,24.2,N/A,,Scattered Clouds,140,2014-02-17 00:52:00
7:12 PM,19.4,12.2,74,30.04,7.0,SE,19.6,26.5,N/A,,Clear,140,2014-02-17 01:12:00
7:33 PM,19.4,14.0,80,30.02,7.0,SE,20.7,29.9,N/A,,Scattered Clouds,140,2014-02-17 01:33:00
7:52 PM,19.4,14.0,80,30.02,7.0,SSE,19.6,29.9,N/A,,Scattered Clouds,150,2014-02-17 01:52:00
8:12 PM,19.4,15.8,86,30.01,5.0,SSE,19.6,26.5,N/A,,Scattered Clouds,150,2014-02-17 02:12:00
8:33 PM,19.4,15.8,86,30.00,5.0,SSE,23.0,28.8,N/A,,Scattered Clouds,150,2014-02-17 02:33:00
8:52 PM,19.4,15.8,86,30.00,5.0,SSE,20.7,32.2,N/A,,Haze,150,2014-02-17 02:52:00
9:13 PM,19.4,15.8,86,30.01,5.0,SSE,20.7,28.8,N/A,,Haze,160,2014-02-17 03:13:00
9:32 PM,19.4,15.8,86,29.99,5.0,SSE,25.3,31.1,N/A,,Haze,150,2014-02-17 03:32:00
9:52 PM,19.4,15.8,86,29.98,4.0,SSE,23.0,36.8,N/A,,Haze,150,2014-02-17 03:52:00
10:13 PM,19.4,15.8,86,29.99,5.0,SSE,20.7,31.1,N/A,,Haze,150,2014-02-17 04:13:00
10:32 PM,19.4,15.8,86,29.98,5.0,SSE,23.0,26.5,N/A,,Haze,150,2014-02-17 04:32:00
10:52 PM,19.4,15.8,86,29.98,4.0,SSE,24.2,32.2,N/A,,Haze,150,2014-02-17 04:52:00
11:12 PM,19.4,15.8,86,29.97,4.0,SSE,25.3,32.2,N/A,,Overcast,150,2014-02-17 05:12:00
11:32 PM,19.4,15.8,86,29.96,4.0,SSE,25.3,32.2,N/A,,Mostly Cloudy,150,2014-02-17 05:32:00
11:52 PM,19.4,15.8,86,29.95,4.0,SSE,26.5,32.2,N/A,,Haze,150,2014-02-17 05:52:00